Change the Weather History Date:

Thursday, July 1, 2004

  Actual Average Record
Temperature  
Mean Temperature 74 °F 82 °F  
Max Temperature 81 °F 92 °F 103 °F (1894)
Min Temperature 71 °F 72 °F 58 °F (1943)
Degree Days  
Heating Degree Days 0 0  
Month to date heating degree days 0  
Since 1 June heating degree days 0  
Since 1 July heating degree days 0  
Cooling Degree Days 10 17  
Month to date cooling degree days 17  
Year to date cooling degree days 723  
Since 1 June cooling degree days 442  
Growing Degree Days 24 (Base 50)    
Moisture  
Dew Point 72 °F    
Average Humidity 92    
Maximum Humidity 100    
Minimum Humidity 84    
Precipitation  
Precipitation 0.10 in 0.11 in 1.82 in (1989)
Month to date precipitation 0.11  
Year to date precipitation 25.66  
Snow  
Snow 0.00 in 0.00 in - ()
Month to date snowfall 0.0  
Since 1 June snowfall 0.0  
Since 1 July snowfall 0.0  
Snow Depth -    
Sea Level Pressure  
Sea Level Pressure 30.05 in    
Wind  
Wind Speed 4 mph (South)    
Max Wind Speed 9 mph    
Max Gust Speed -    
Visibility 6 miles    
Events Rain    
T = Trace of Precipitation, MM = Missing Value Source: NWS Daily Summary

Daily Weather History Graph

Daily Weather History Graph

Search for Another Location

Airport or City:

Trip Planner

Search our weather history database for the weather conditions in past years. The results will help you decide how hot, cold, wet, or windy it might be!

Date:

Astronomy

Jul. 01, 2004 Rise Set
Actual Time 5:59 AM CDT 8:26 PM CDT
Civil Twilight 5:30 AM CDT 8:55 PM CDT
Nautical Twilight 4:53 AM CDT 9:31 PM CDT
Astronomical Twilight 4:13 AM CDT 10:11 PM CDT
Moon 8:13 PM CDT 4:43 AM CDT
Length of Visible Light 15h 25m
Length of Day
14h 26m
Waxing Gibbous, 99% of the Moon is Illuminated
Jul 1
Waxing Gibbous
Jul 2
Full
Jul 9
Last Quarter
Jul 17
New
Jul 24
First Quarter

Hourly Weather History & Observations

Time (CDT) Temp. Dew Point Humidity Pressure Visibility Wind Dir Wind Speed Gust Speed Precip Events Conditions
12:53 AM 73.0 °F 72.0 °F 96% 30.06 in 6.0 mi South 3.5 mph - N/A   Overcast
1:34 AM 73.4 °F 71.6 °F 94% 30.06 in 6.0 mi Calm Calm - N/A   Overcast
1:53 AM 73.0 °F 72.0 °F 96% 30.06 in 6.0 mi Calm Calm - N/A   Overcast
2:53 AM 73.0 °F 72.0 °F 96% 30.06 in 6.0 mi SE 3.5 mph - N/A   Overcast
3:53 AM 73.0 °F 72.0 °F 96% 30.05 in 6.0 mi SSE 3.5 mph - 0.00 in Rain Light Rain
4:53 AM 73.0 °F 72.0 °F 96% 30.06 in 4.0 mi South 4.6 mph - 0.02 in   Overcast
5:19 AM 73.4 °F 71.6 °F 94% 30.07 in 5.0 mi South 4.6 mph - N/A   Overcast
5:53 AM 73.0 °F 72.0 °F 96% 30.07 in 3.0 mi South 4.6 mph - 0.02 in Rain Light Rain
6:00 AM 73.4 °F 71.6 °F 94% 30.07 in 3.0 mi South 6.9 mph - 0.00 in Rain Light Rain
6:17 AM 73.4 °F 71.6 °F 94% 30.07 in 2.5 mi South 5.8 mph - 0.04 in Rain Heavy Rain
6:28 AM 71.6 °F 71.6 °F 100% 30.07 in 4.0 mi SSE 5.8 mph - 0.06 in Rain Light Rain
6:53 AM 72.0 °F 70.0 °F 93% 30.07 in 7.0 mi Calm Calm - 0.06 in   Overcast
7:53 AM 73.0 °F 72.0 °F 96% 30.08 in 6.0 mi South 5.8 mph - N/A   Overcast
8:07 AM 73.4 °F 71.6 °F 94% 30.08 in 7.0 mi South 8.1 mph - N/A   Overcast
8:53 AM 73.9 °F 72.0 °F 93% 30.09 in 7.0 mi South 6.9 mph - N/A   Overcast
9:32 AM 73.4 °F 71.6 °F 94% 30.09 in 7.0 mi South 8.1 mph - N/A   Overcast
9:53 AM 73.0 °F 71.1 °F 93% 30.08 in 7.0 mi Calm Calm - N/A   Mostly Cloudy
10:14 AM 73.4 °F 71.6 °F 94% 30.09 in 7.0 mi South 5.8 mph - N/A   Overcast
10:53 AM 75.0 °F 72.0 °F 90% 30.09 in 7.0 mi South 6.9 mph - N/A   Overcast
11:53 AM 77.0 °F 72.0 °F 84% 30.08 in 7.0 mi South 5.8 mph - N/A   Overcast
12:53 PM 77.0 °F 72.0 °F 84% 30.08 in 7.0 mi South 9.2 mph - N/A   Overcast
1:53 PM 75.9 °F 72.0 °F 87% 30.07 in 7.0 mi SSE 4.6 mph - N/A   Overcast
2:53 PM 75.9 °F 73.0 °F 91% 30.05 in 7.0 mi South 9.2 mph - N/A   Overcast
3:00 PM 77.0 °F 73.4 °F 89% 30.05 in 10.0 mi SSE 5.8 mph - N/A   Overcast
3:53 PM 78.1 °F 73.0 °F 84% 30.03 in 7.0 mi South 8.1 mph - N/A   Overcast
4:53 PM 78.1 °F 73.0 °F 84% 30.02 in 7.0 mi SSE 6.9 mph - N/A   Overcast
5:53 PM 78.1 °F 73.9 °F 87% 30.01 in 7.0 mi SSE 9.2 mph - N/A   Overcast
6:53 PM 78.1 °F 73.0 °F 84% 29.99 in 7.0 mi SE 9.2 mph - N/A   Mostly Cloudy
7:31 PM 77.0 °F 73.4 °F 89% 30.01 in 7.0 mi SSE 4.6 mph - N/A   Overcast
7:53 PM 77.0 °F 73.0 °F 88% 30.02 in 7.0 mi Calm Calm - N/A   Overcast
8:25 PM 75.2 °F 73.4 °F 94% 30.02 in 7.0 mi SE 8.1 mph - N/A   Overcast
8:53 PM 75.0 °F 73.0 °F 94% 30.02 in 7.0 mi South 3.5 mph - N/A   Scattered Clouds
9:53 PM 75.0 °F 73.0 °F 94% 30.04 in 7.0 mi SSE 3.5 mph - N/A   Mostly Cloudy
10:53 PM 73.0 °F 72.0 °F 96% 30.02 in 7.0 mi South 6.9 mph - N/A   Mostly Cloudy
11:43 PM 73.4 °F 71.6 °F 94% 30.04 in 7.0 mi SSW 3.5 mph - N/A   Overcast
11:53 PM 73.0 °F 72.0 °F 96% 30.04 in 7.0 mi SSW 3.5 mph - N/A   Overcast